Flag for Belarus Weather past 2 weeks in Minsk, Belarus

Now
79 °F

Sunny.


Feels Like: 80 °F
Forecast: 64 / 89 °F
Wind: 8 mph from Southeast

Location: Loshitsa / Minsk International 1

Current Time: Jul 31, 2014 at 11:18:56 AM

Latest Report: Jul 31, 2014 at 10:30 AM


Visibility: 10 mi

Pressure: 29.92 "Hg

Humidity: 48%

Dew point: 57 °F

Location of MinskLocation

Historic Weather in Minsk — Graph

°F

Minsk temperature yesterday

Maximum temperature yesterday: 88 °F (at 4:00 PM)
Minimum temperature yesterday: 64 °F (at 7:00 AM)
Average temperature yesterday: 82 °F

Past Weeks' High & Low Weather Summary

 TemperatureHumidityPressure
High88 °F (Jul 29, 1:00 PM)94% (Jul 20, 7:00 AM)30.18 "Hg (Jul 20, 7:00 AM)
Low59 °F (Jul 22, 7:00 AM)24% (Jul 29, 4:00 PM)29.65 "Hg (Jul 30, 7:00 AM)
Average76 °F53%30.04 "Hg
* Reported Jul 16 10:00 AM — Jul 31 10:00 AM, Minsk, Weather by CustomWeather, © 2014

Note: Actual official high and low records may vary slightly from our data, if they occured in-between our weather recording intervals... More about our weather records

Advertising

Minsk weather history for previous 24 hours

 ConditionsComfort  
Time TempWeatherWind HumidityBarometerVisibility
10:00 AM
Jul 31
79 °FSunny.3 mph48%29.92 "Hg10 mi
9:30 AM75 °FSunny.3 mph50%29.92 "Hg10 mi
9:00 AM75 °FSunny.3 mph50%29.92 "Hg10 mi
8:30 AM72 °FSunny.3 mph53%29.92 "Hg10 mi
8:00 AM72 °FSunny.3 mph53%29.92 "Hg10 mi
7:30 AM64 °FSunny.3 mph68%29.92 "Hg10 mi
7:00 AM64 °FSunny.1 mph68%29.92 "Hg10 mi
8:30 PM
Jul 30
84 °FSunny.3 mph31%29.89 "Hg10 mi
8:00 PM84 °FSunny.3 mph31%29.92 "Hg10 mi
7:30 PM86 °FSunny.6 mph27%29.89 "Hg10 mi
7:00 PM86 °FSunny.3 mph27%29.89 "Hg10 mi
6:30 PM86 °FSunny.6 mph24%29.92 "Hg10 mi
6:00 PM86 °FSunny.10 mph24%29.92 "Hg10 mi
5:30 PM86 °FPartly sunny.6 mph29%29.92 "HgN/A
5:00 PM86 °FPartly sunny.10 mph29%29.92 "HgN/A
4:30 PM88 °FScattered clouds.10 mph27%29.95 "HgN/A
4:00 PM88 °FScattered clouds.8 mph27%29.95 "HgN/A
3:30 PM86 °FPartly sunny.10 mph27%29.95 "HgN/A
3:00 PM86 °FPartly sunny.8 mph27%29.95 "HgN/A
2:30 PM86 °FBroken clouds.10 mph27%29.95 "HgN/A
2:00 PM86 °FPartly sunny.10 mph27%29.95 "HgN/A
1:30 PM86 °FPartly sunny.10 mph29%29.95 "HgN/A
1:00 PM86 °FPartly sunny.6 mph29%29.95 "HgN/A
12:30 PM84 °FScattered clouds.10 mph31%29.95 "HgN/A
12:00 PM84 °FSunny.10 mph31%29.95 "Hg10 mi
11:30 AM82 °FSunny.10 mph40%29.95 "Hg10 mi
11:00 AM82 °FSunny.8 mph40%29.95 "Hg10 mi
Weather by CustomWeather, © 2014

See weather overviewHow to use our weather pages